EW7452 Weather Reports


time (UTC)temp
C
wind
direction
speed
KPH
gust
KPH
rain 1hr
cm
rain 24hr
cm
rain mn
cm
humidity
%
barometer
mb
20260506134602 6 258 30.6 37.0 0.00 0.00 0.00 77 1009.7
20260506133012 6 260 27.4 33.8 0.00 0.00 0.00 77 1009.6
20260506131604 6 256 27.4 38.6 0.00 0.00 0.00 77 1009.4
20260506130140 6 259 30.6 38.6 0.00 0.00 0.00 76 1009.3
20260506124534 6 259 30.6 37.0 0.00 0.00 0.00 78 1009.3
20260506123015 5 258 32.2 37.0 0.00 0.00 0.00 79 1009.2
20260506121602 5 256 32.2 37.0 0.00 0.00 0.00 80 1009.1
20260506120022 5 255 29.0 38.6 0.00 0.00 0.00 79 1009.0
20260506114502 5 260 32.2 38.6 0.00 0.00 0.00 80 1008.9
20260506113102 5 260 30.6 40.2 0.00 0.00 0.00 79 1008.8
20260506111601 5 255 32.2 38.6 0.00 0.00 0.00 78 1008.5
20260506110013 5 258 33.8 38.6 0.00 0.00 0.00 77 1008.3
20260506104522 5 263 29.0 38.6 0.00 0.00 0.00 78 1008.2
20260506103002 5 260 32.2 38.6 0.00 0.00 0.00 78 1008.1
20260506101502 5 265 33.8 41.8 0.00 0.00 0.00 77 1007.9
20260506100110 5 260 33.8 40.2 0.00 0.00 0.00 78 1007.7
20260506094511 5 253 37.0 41.8 0.00 0.00 0.00 77 1007.5
20260506093037 5 254 33.8 38.6 0.00 0.00 0.00 77 1007.2
20260506091503 5 262 35.4 43.5 0.00 0.00 0.00 75 1007.1
20260506090103 5 264 33.8 41.8 0.00 0.00 0.00 77 1007.0
20260506084602 5 262 30.6 41.8 0.00 0.00 0.00 80 1006.8
20260506083101 5 266 33.8 41.8 0.00 0.00 0.00 79 1006.7
20260506081609 4 264 33.8 41.8 0.00 0.00 0.00 80 1006.5
20260506073010 5 270 37.0 43.5 0.00 0.00 0.00 76 1006.0
20260506071601 6 267 35.4 40.2 0.00 0.00 0.00 75 1005.8
20260506061611 5 270 35.4 41.8 0.00 0.00 0.00 74 1004.9
20260506044600 5 285 35.4 41.8 0.00 0.00 0.00 76 1003.7
20260506043111 5 280 35.4 41.8 0.00 0.00 0.00 77 1003.6
20260506041601 5 289 37.0 40.2 0.00 0.00 0.00 78 1003.5
20260506040001 4 286 33.8 41.8 0.00 0.00 0.00 79 1003.3
20260506034617 4 289 37.0 41.8 0.00 0.00 0.00 80 1003.2
20260506033015 3 286 33.8 45.1 0.00 0.00 0.00 81 1003.1
20260506031520 3 280 35.4 40.2 0.00 0.00 0.00 81 1003.0
20260506024503 3 280 37.0 41.8 0.00 0.00 0.00 84 1002.7
20260506023106 3 286 32.2 41.8 0.00 0.00 0.00 84 1002.7
20260506021606 3 290 32.2 46.7 0.00 0.00 0.00 83 1002.5
20260506020100 3 285 33.8 40.2 0.00 0.00 0.00 83 1002.5
20260506014601 3 289 33.8 40.2 0.00 0.00 0.00 83 1002.3
20260506013013 3 288 25.7 38.6 0.00 0.00 0.00 83 1002.3
20260506011509 3 287 32.2 40.2 0.00 0.00 0.00 83 1002.1
20260506010120 3 285 32.2 40.2 0.00 0.00 0.00 83 1001.9
20260506004603 3 287 32.2 41.8 0.00 0.00 0.00 83 1001.9
20260506003011 3 284 33.8 40.2 0.00 0.00 0.00 83 1001.8
20260506001502 3 293 32.2 40.2 0.00 0.00 0.00 83 1001.6
20260506000110 3 282 33.8 40.2 0.00 0.00 0.00 83 1001.7
20260505234501 3 285 32.2 40.2 0.00 0.00 0.00 83 1001.6
20260505233005 3 285 33.8 40.2 0.00 0.00 0.00 83 1001.5
20260505231513 3 283 32.2 40.2 0.00 0.00 0.00 83 1001.5
20260505224601 3 359 32.2 37.0 0.00 0.00 0.00 81 1001.4
20260505223104 3 288 33.8 38.6 0.00 0.00 0.00 81 1001.5
20260505221602 3 287 30.6 37.0 0.00 0.00 0.00 82 1001.4
20260505220002 4 286 30.6 37.0 0.00 0.00 0.00 81 1001.4
20260505214502 3 290 29.0 35.4 0.00 0.00 0.00 81 1001.3
20260505213116 3 284 27.4 30.6 0.00 0.00 0.00 83 1001.3
20260505211512 4 284 22.5 29.0 0.00 0.00 0.00 83 1001.3
20260505210103 4 264 24.1 27.4 0.00 0.00 0.00 82 1001.2
20260505204512 4 274 25.7 33.8 0.00 0.00 0.00 81 1001.1
20260505203001 4 283 24.1 29.0 0.00 0.00 0.00 79 1000.9
20260505201502 4 284 25.7 30.6 0.00 0.00 0.00 79 1000.8
20260505200011 4 283 27.4 32.2 0.00 0.00 0.00 80 1000.7
20260505194601 4 279 27.4 33.8 0.00 0.00 0.00 79 1000.7
20260505193012 5 284 29.0 33.8 0.00 0.00 0.00 79 1000.6
20260505191502 5 283 25.7 32.2 0.00 0.00 0.00 79 1000.5
20260505190017 5 285 27.4 37.0 0.00 0.00 0.00 79 1000.5
20260505184511 5 280 32.2 40.2 0.00 0.00 0.00 80 1000.4
20260505183145 5 278 38.6 45.1 0.00 0.00 0.00 77 1000.3
20260505181601 5 274 30.6 37.0 0.00 0.00 0.00 79 1000.1
20260505180012 5 269 29.0 33.8 0.00 0.00 0.00 79 1000.1
20260505174601 5 276 27.4 32.2 0.00 0.00 0.00 79 1000.0
20260505173011 5 264 30.6 37.0 0.00 0.00 0.00 78 1000.0
20260505171502 6 266 33.8 40.2 0.00 0.00 0.00 76 999.9
20260505170004 6 261 30.6 35.4 0.00 0.00 0.00 75 999.8
20260505164514 6 256 27.4 32.2 0.00 0.00 0.00 77 999.8
20260505163101 6 251 30.6 37.0 0.00 0.00 0.00 79 999.8
20260505161502 6 253 35.4 43.5 0.00 0.00 0.00 79 999.8
20260505153103 6 251 33.8 40.2 0.00 0.00 0.00 77 999.5
20260505151624 6 259 33.8 40.2 0.00 0.00 0.00 76 999.4